Regional Weather Roundup
Issued by NWS

Home | Current Version | Previous Version | Graphics & Text | Print | Product List | Glossary Off
Versions: 1 2 3 4 5 6 7 8 9 10 11 12 13 14 15 16 17 18 19 20 21 22 23 24 25 26 27 28 29 30 31 32 33 34 35 36 37 38 39 40 41 42 43 44 45 46 47 48 49 50

000
ASUS43 KTOP 210259
RWRKS

WEATHER ROUNDUP FOR KANSAS
NATIONAL WEATHER SERVICE GOODLAND KS
900 PM CST MON NOV 20 2017

NOTE:  "FAIR" INDICATES FEW OR NO CLOUDS BELOW 12,000 FEET WITH NO
SIGNIFICANT WEATHER AND/OR OBSTRUCTIONS TO VISIBILITY.

KSZ001>006-013>018-027>032-041>047-210400-
NORTHWEST KANSAS

CITY           SKY/WX    TMP DP  RH WIND       PRES   REMARKS
GOODLAND       CLOUDY    44  18  35 CALM      29.80S
HAYS           CLOUDY    52  21  29 W7        29.75R
HILL CITY      CLOUDY    52  21  29 SW5       29.75S
RUSSELL        CLOUDY    53  23  31 SW9       29.73R
$$

KSZ061>065-074>080-084>089-210400-
SOUTHWEST KANSAS

CITY           SKY/WX    TMP DP  RH WIND       PRES   REMARKS
DODGE CITY     CLOUDY    50  18  28 SW12      29.78S
GARDEN CITY    CLOUDY    45  15  30 SW3       29.78R
GREAT BEND     CLOUDY    50  24  36 S13       29.76R
LIBERAL        CLOUDY    41  20  43 SW10      29.79S
$$

KSZ066>073-081>083-090>101-210400-
SOUTHEAST KANSAS

CITY           SKY/WX    TMP DP  RH WIND       PRES   REMARKS
CHANUTE        CLOUDY    54  29  38 S15       29.85R
COFFEYVILLE    CLOUDY    54  31  41 S13       29.86S
HUTCHINSON     CLOUDY    51  29  42 S12       29.78S
MEDICINE LODGE   N/A     47  28  47 S6        29.81R
NEWTON         CLOUDY    54  29  38 S16G26    29.80R
PARSONS        CLOUDY    51  32  48 S7        29.87R
WICHITA INTL   CLOUDY    51  31  46 S13       29.82R
WICHITA JABRA  CLOUDY    54  30  40 S17       29.81R
WICHITA MCCONL CLOUDY    55  29  37 SW15      29.82R
WINFIELD       CLOUDY    55  30  38 S13       29.85R
$$

KSZ007>012-019>026-033>040-048>060-102>105-210400-
NORTHEAST KANSAS

CITY           SKY/WX    TMP DP  RH WIND       PRES   REMARKS
CONCORDIA      CLOUDY    53  24  32 S17       29.69S
EMPORIA        CLOUDY    52  29  41 S12G22    29.79F
LAWRENCE       CLEAR     53  30  41 VRB6      29.76F
MANHATTAN      CLOUDY    54  28  36 SW17G26   29.72S
OLATHE IND     PTCLDY    49  32  52 S10       29.78S
OLATHE EXE     CLOUDY    50  31  48 S12       29.78S
SALINA         CLOUDY    56  27  32 S18       29.73S
TOPEKA BILLARD CLOUDY    57  29  34 S12       29.74F
TOPEKA FORBES  CLOUDY    56  29  35 S17G26    29.73F
$$




USA.gov is the U.S. government's official web portal to all federal, state and local government web resources and services.